DB0BGL Weather Reports


Display with metric or nautical units.
time (UTC)temp
F
wind
direction
speed
MPH
gust
MPH
rain 1hr
in
rain 24hr
in
rain mn
in
humidity
%
barometer
mb
20260831123902 64 71 0.0 0.0 0.00 0.00 0.00 70
20260831122901 62 71 0.0 0.0 0.00 0.00 0.00 74
20260831121901 61 71 0.0 0.0 0.00 0.00 0.00 76
20260831120901 61 71 0.0 0.0 0.00 0.00 0.00 78
20260831115900 60 71 0.0 0.0 0.00 0.00 0.00 79
20260831114859 62 71 0.0 0.0 0.00 0.00 0.00 77
20260831113901 64 71 0.0 0.0 0.00 0.00 0.00 72
20260831112858 64 71 0.0 0.0 0.00 0.00 0.00 73
20260831111857 61 71 0.0 0.0 0.00 0.00 0.00 78
20260831110857 61 71 0.0 0.0 0.00 0.00 0.00 80
20260831105856 61 71 0.0 0.0 0.00 0.00 0.00 79
20260831104855 60 71 0.0 0.0 0.00 0.00 0.00 80
20260831103856 60 71 0.0 0.0 0.00 0.00 0.00 81
20260831102854 60 71 0.0 3.0 0.00 0.00 0.00 77
20260831101854 61 63 0.0 0.0 0.00 0.00 0.00 76
20260831100853 61 63 0.0 0.0 0.00 0.00 0.00 72
20260831095853 62 63 0.0 0.0 0.00 0.00 0.00 71
20260831094852 65 67 0.0 0.0 0.00 0.00 0.00 65
20260831093852 65 73 2.0 2.0 0.00 0.00 0.00 66
20260831092851 62 180 0.0 0.0 0.00 0.00 0.00 72
20260831091850 62 180 0.0 0.0 0.00 0.00 0.00 73
20260831090850 63 180 0.0 0.0 0.00 0.00 0.00 100
20260831084852 70 67 0.0 0.0 0.00 0.00 0.00 55
20260831083852 70 71 0.0 0.0 0.00 0.00 0.00 55
20260831082850 72 71 0.0 0.0 0.00 0.00 0.00 48
20260831081850 73 71 0.0 0.0 0.00 0.00 0.00 49
20260831080850 73 71 0.0 6.0 0.00 0.00 0.00 49
20260831075849 70 81 0.0 0.0 0.00 0.00 0.00 55
20260831074848 65 81 0.0 0.0 0.00 0.00 0.00 63
20260831073847 59 81 0.0 0.0 0.00 0.00 0.00 73
20260831072847 55 63 0.0 17.0 0.00 0.00 0.00 81
20260831071846 54 97 0.0 14.0 0.00 0.00 0.00 78
20260831070846 54 74 4.0 5.0 0.00 0.00 0.00 82
20260831065845 54 68 1.0 8.0 0.00 0.00 0.00 79
20260831064845 53 77 1.0 9.0 0.00 0.00 0.00 83
20260831063844 53 74 6.0 7.0 0.00 0.00 0.00 100
20260831062843 52 81 1.0 6.0 0.00 0.00 0.00 78
20260831061843 53 61 0.0 7.0 0.00 0.00 0.00 80
20260831060842 53 67 4.0 15.0 0.00 0.00 0.00 76
20260831055842 53 75 3.0 17.0 0.00 0.00 0.00 70
20260831054841 53 71 3.0 14.0 0.00 0.00 0.00 68
20260831053840 52 68 12.0 15.0 0.00 0.00 0.00 69
20260831052841 51 78 4.0 21.0 0.00 0.00 0.00 73
20260831051839 49 71 9.0 25.0 0.00 0.00 0.00 100
20260830160928 71 85 0.0 0.0 0.00 0.00 0.00 52
20260830155927 75 85 0.0 0.0 0.00 0.00 0.00 45
20260830154926 77 85 0.0 0.0 0.00 0.00 0.00 43
20260830153926 77 85 0.0 0.0 0.00 0.00 0.00 43
20260830152925 77 85 0.0 0.0 0.00 0.00 0.00 43
20260830151925 77 85 0.0 0.0 0.00 0.00 0.00 43
20260830150924 77 85 0.0 0.0 0.00 0.00 0.00 41
20260830145924 78 85 0.0 0.0 0.00 0.00 0.00 41
20260830145135 79 85 0.0 0.0 0.00 0.00 0.00 40
20260830144923 79 85 0.0 0.0 0.00 0.00 0.00 40
20260830143922 78 85 0.0 0.0 0.00 0.00 0.00 41
20260830142922 80 85 0.0 0.0 0.00 0.00 0.00 39
20260830141921 81 105 0.0 4.0 0.00 0.00 0.00 36
20260830140921 81 102 0.0 3.0 0.00 0.00 0.00 38
20260830135920 82 116 0.0 0.0 0.00 0.00 0.00 36
20260830134919 82 116 0.0 0.0 0.00 0.00 0.00 36
20260830133920 83 116 0.0 0.0 0.00 0.00 0.00 35
20260830132918 82 116 0.0 0.0 0.00 0.00 0.00 37
20260830131918 80 116 0.0 0.0 0.00 0.00 0.00 38
20260830130917 80 116 0.0 0.0 0.00 0.00 0.00 39
20260830125918 79 116 0.0 0.0 0.00 0.00 0.00 40
20260830124916 78 116 0.0 0.0 0.00 0.00 0.00 40